Date String (YYYY-MM-DD hh:mm:ss) UTC,Instrument flags,Ambient pressure (hPa),Sample flow (lpm),Bypass flow (lpm),Sample temperature (°C),Ambient temperature (°C),ASC tube jacket temperature (°C),LED temperature (°C),Box temperature (°C),Sample RH (%),Span deviation,Mass concentration (μg/m³),Mass concentration (μg/m³),Mass concentration (μg/m³)
DateTimeUTC,F1_M11,P_M11,Q1_M11,Q2_M11,T1_M11,T2_M11,T3_M11,T4_M11,T5_M11,U1_M11,ZSPAN_M11,X0_M11,X2_M11,X1_M11
2022-09-07 11:00:00,,0833.2,5.02,0.00,30.0,28.9,00.0,38.8,31.9,17.5,0003.0,0029.24,0016.42,0014.40
2022-09-07 11:01:00,,0833.3,4.99,0.00,30.1,28.9,00.0,38.8,31.9,17.6,0002.9,0029.06,0016.43,0014.47
2022-09-07 11:02:00,,0833.3,5.01,0.00,30.1,29.0,00.0,38.8,31.9,17.6,0003.0,0029.07,0016.49,0014.55
2022-09-07 11:03:00,,0833.3,4.99,0.00,30.1,29.0,00.0,38.8,32.0,17.5,0003.4,0029.25,0016.60,0014.65
2022-09-07 11:04:00,,0833.3,5.02,0.00,30.1,29.0,00.0,38.9,32.0,17.2,0003.3,0028.98,0016.72,0014.74
2022-09-07 11:05:00,,0833.3,4.99,0.00,30.1,29.1,00.0,38.9,32.0,17.1,0003.2,0027.55,0016.80,0014.83
2022-09-07 11:06:00,,0833.3,5.01,0.00,30.2,29.1,00.0,38.9,32.0,17.0,0002.7,0027.52,0016.81,0014.87
2022-09-07 11:07:00,,0833.2,4.99,0.00,30.2,29.2,00.0,38.9,32.0,17.1,0002.5,0027.01,0016.71,0014.82
2022-09-07 11:08:00,,0833.3,5.01,0.00,30.2,29.2,00.0,38.9,32.0,17.1,0002.3,0028.54,0016.66,0014.76
2022-09-07 11:09:00,,0833.3,4.99,0.00,30.2,29.2,00.0,39.0,32.1,17.0,0002.3,0028.58,0016.58,0014.69
2022-09-07 11:10:00,,0833.4,5.01,0.00,30.2,29.2,00.0,39.0,32.1,17.1,0002.3,0028.04,0016.41,0014.57
2022-09-07 11:11:00,,0833.4,4.99,0.00,30.3,29.3,00.0,39.0,32.1,17.0,0002.7,0027.08,0016.29,0014.51
2022-09-07 11:12:00,,0833.4,5.00,0.00,30.3,29.3,00.0,39.0,32.1,16.9,0003.1,0026.80,0016.23,0014.47
2022-09-07 11:13:00,,0833.4,5.00,0.00,30.3,29.3,00.0,39.0,32.1,16.9,0003.2,0027.04,0016.16,0014.39
2022-09-07 11:14:00,,0833.4,5.00,0.00,30.3,29.1,00.0,39.0,32.1,16.9,0002.9,0026.92,0016.07,0014.34
2022-09-07 11:15:00,,0833.4,4.98,0.00,30.3,27.7,00.0,39.0,32.0,16.9,0002.6,0026.33,0015.92,0014.27
2022-09-07 11:16:00,,0833.4,5.01,0.00,30.3,27.0,00.0,39.0,32.0,16.9,0002.8,0026.62,0015.79,0014.16
2022-09-07 11:17:00,,0833.4,5.01,0.00,30.2,27.1,00.0,38.9,31.8,16.9,0002.9,0026.01,0015.68,0014.03
2022-09-07 11:18:00,,0833.4,5.00,0.00,30.1,27.4,00.0,38.9,31.7,17.0,0002.9,0025.26,0015.55,0013.86
2022-09-07 11:19:00,,0833.3,4.99,0.00,30.1,27.7,00.0,38.9,31.7,17.0,0003.7,0023.34,0015.42,0013.71
2022-09-07 11:20:00,,0833.3,5.02,0.00,30.1,28.0,00.0,38.9,31.8,16.9,0004.3,0022.88,0015.28,0013.57
2022-09-07 11:21:00,,0833.4,5.00,0.00,30.0,28.2,00.0,38.9,31.8,16.8,0004.3,0023.10,0015.27,0013.50
2022-09-07 11:22:00,,0833.3,5.01,0.00,30.0,28.4,00.0,38.9,31.8,16.9,0004.0,0023.90,0015.24,0013.46
2022-09-07 11:23:00,,0833.3,5.00,0.00,30.0,28.5,00.0,38.8,31.8,16.8,0003.4,0025.90,0015.27,0013.40
2022-09-07 11:24:00,,0833.3,4.98,0.00,30.0,28.6,00.0,38.8,31.8,16.8,0003.2,0025.93,0015.25,0013.37
2022-09-07 11:25:00,,0833.3,5.01,0.00,30.0,28.7,00.0,38.9,31.8,16.7,0002.9,0025.29,0015.20,0013.40
2022-09-07 11:26:00,,0833.3,4.99,0.00,30.1,28.8,00.0,38.9,31.9,16.7,0003.1,0026.01,0015.22,0013.41
2022-09-07 11:27:00,,0833.3,5.01,0.00,30.1,28.8,00.0,38.9,31.9,16.7,0002.9,0026.22,0015.31,0013.45
2022-09-07 11:28:00,,0833.3,4.98,0.00,30.1,28.9,00.0,38.9,31.9,16.7,0002.6,0026.79,0015.35,0013.50
2022-09-07 11:29:00,,0833.4,5.01,0.00,30.1,28.9,00.0,38.9,31.9,16.8,0002.5,0027.86,0015.37,0013.53
2022-09-07 11:30:00,,0833.4,4.99,0.00,30.1,29.0,00.0,38.9,31.9,16.7,0002.1,0028.65,0015.35,0013.55
2022-09-07 11:31:00,,0833.4,5.01,0.00,30.1,29.0,00.0,38.9,32.0,16.6,0001.7,0029.61,0015.35,0013.56
2022-09-07 11:32:00,,0833.4,4.98,0.00,30.2,29.0,00.0,38.9,32.0,16.6,0001.6,0030.29,0015.29,0013.50
2022-09-07 11:33:00,,0833.4,5.00,0.00,30.2,29.1,00.0,38.9,32.0,16.5,0001.6,0029.69,0015.21,0013.47
2022-09-07 11:34:00,,0833.5,5.00,0.00,30.2,29.1,00.0,39.0,32.0,16.6,0001.8,0028.02,0015.13,0013.44
2022-09-07 11:35:00,,0833.5,5.00,0.00,30.2,29.1,00.0,39.0,32.0,16.6,0001.6,0027.83,0015.04,0013.35
2022-09-07 11:36:00,,0833.5,5.00,0.00,30.2,29.1,00.0,39.0,32.0,16.6,0001.5,0027.87,0015.00,0013.24
2022-09-07 11:37:00,,0833.5,5.01,0.00,30.2,29.2,00.0,39.0,32.1,16.5,0001.7,0028.42,0014.97,0013.15
2022-09-07 11:38:00,,0833.5,4.99,0.00,30.3,29.2,00.0,39.0,32.1,16.6,0001.7,0027.79,0014.85,0013.05
2022-09-07 11:39:00,,0833.5,5.01,0.00,30.3,29.2,00.0,39.0,32.1,16.5,0002.0,0027.13,0014.76,0012.94
2022-09-07 11:40:00,,0833.5,4.99,0.00,30.3,29.2,00.0,39.1,32.1,16.3,0001.9,0026.55,0014.79,0012.94
2022-09-07 11:41:00,,0833.6,5.01,0.00,30.3,29.2,00.0,39.1,32.1,16.0,0002.0,0026.18,0014.90,0013.09
2022-09-07 11:42:00,,0833.6,5.01,0.00,30.3,29.2,00.0,39.1,32.1,15.9,0001.8,0026.05,0015.11,0013.31
2022-09-07 11:43:00,,0833.5,4.98,0.00,30.3,28.8,00.0,39.1,32.1,15.9,0002.1,0026.50,0015.31,0013.51
2022-09-07 11:44:00,,0833.6,5.00,0.00,30.3,27.4,00.0,39.1,32.0,15.9,0002.6,0027.03,0015.53,0013.72
2022-09-07 11:45:00,,0833.5,4.99,0.00,30.2,27.0,00.0,39.0,32.0,15.9,0002.2,0027.49,0015.77,0013.92
2022-09-07 11:46:00,,0833.5,5.01,0.00,30.1,27.1,00.0,38.9,31.7,15.9,0002.5,0027.78,0016.08,0014.19
2022-09-07 11:47:00,,0833.5,5.00,0.00,30.1,27.4,00.0,38.9,31.7,16.1,0002.9,0029.97,0016.43,0014.46
2022-09-07 11:48:00,,0833.5,4.99,0.00,30.0,27.7,00.0,38.9,31.7,16.3,0002.3,0029.87,0016.66,0014.63
2022-09-07 11:49:00,,0833.5,5.02,0.00,30.0,28.0,00.0,38.9,31.7,16.2,0002.2,0031.10,0016.89,0014.81
2022-09-07 11:50:00,,0833.5,5.00,0.00,30.0,28.2,00.0,38.9,31.7,16.3,0001.8,0031.84,0017.08,0014.98
2022-09-07 11:51:00,,0833.5,5.00,0.00,30.0,28.3,00.0,38.9,31.7,16.3,0002.0,0032.05,0017.21,0015.09
2022-09-07 11:52:00,,0833.6,5.01,0.00,30.0,28.5,00.0,38.9,31.8,16.3,0001.8,0031.54,0017.16,0015.05
2022-09-07 11:53:00,,0833.5,4.99,0.00,30.0,28.6,00.0,38.9,31.8,16.3,0001.8,0031.27,0017.03,0014.92
2022-09-07 11:54:00,,0833.5,5.01,0.00,30.0,28.6,00.0,38.9,31.7,16.4,0001.4,0030.33,0016.81,0014.74
2022-09-07 11:55:00,,0833.6,4.99,0.00,30.0,28.7,00.0,38.9,31.8,16.4,0001.0,0030.33,0016.58,0014.51
2022-09-07 11:56:00,,0833.6,5.01,0.00,30.0,28.8,00.0,38.9,31.8,16.6,0001.0,0032.77,0016.30,0014.23
2022-09-07 11:57:00,,0833.5,4.99,0.00,30.0,28.8,00.0,38.9,31.9,16.6,0000.8,0032.47,0015.99,0013.95
2022-09-07 11:58:00,,0833.6,4.99,0.00,30.1,28.9,00.0,38.9,31.9,16.6,0000.3,0030.17,0015.62,0013.68
2022-09-07 11:59:00,,0833.6,5.01,0.00,30.1,28.9,00.0,38.9,31.9,16.7,0000.6,0030.30,0015.38,0013.45
